Wetbulb
60.83 61.01 61.19 61.10 61.10 61.28 61.59 61.91 61.64 61.46 61.28 61.00 60.60 60.51 60.42 60.33 60.00 60.00 60.05 59.95 59.81 59.67 59.62 59.58 59.71 59.58 59.44 59.61 59.74 59.66 59.62 59.62 59.61 59.61 59.66 59.80 59.97 59.92 59.74 59.52 59.43 59.67 59.89 60.11 60.25 60.29 60.30 60.21 60.17 60.08 59.85 59.71 59.58 59.43 59.29 59.16 59.02 58.71 58.40 58.27 58.00 57.90 57.94 57.94 57.67 57.53 57.35 57.26 57.31
60.83 61.10 61.37 61.28 61.28 61.69 62.10 62.01 61.83 61.65 61.41 61.27 60.86 60.45 60.22 60.04 59.77 59.59 59.54 59.54 59.99 60.03 59.89 59.67 59.36 59.09 58.91 58.90 58.81 58.68 58.50 58.51 58.50 58.50 58.50 58.50 58.63 58.54 58.72 59.49 59.52 59.71 59.97 60.24 60.19 60.11 60.12 60.03 59.90 59.72 59.49 59.39 59.26 59.03 58.94 59.02 58.84 58.49 58.09 57.81 57.77 57.72 57.72 57.63 57.49 57.40 57.35 57.35 57.31
60.88 61.08 61.40 61.62 61.53 61.75 62.02 62.02 61.83 61.46 61.00 60.82 61.08 60.95 60.62 60.22 60.17 60.08 59.94 59.94 59.94 59.72 59.50 59.27 58.64 58.19 57.78 57.60 57.47 57.51 57.60 57.69 57.60 57.55 57.51 57.55 57.51 57.73 58.19 58.63 58.77 59.39 60.06 60.29 60.24 60.16 60.07 59.98 59.67 59.40 59.21 59.12 58.89 58.71 58.62 58.56 58.39 58.18 57.92 57.59 57.58 57.45 57.41 57.32 57.31 57.35 57.40 57.35 57.31
57.02 57.42 57.84 58.20 58.92 59.81 60.62 61.14 61.19 61.04 60.92 61.10 61.28 61.09 60.67 60.45 60.45 60.17 59.81 59.41 58.91 58.51 58.15 58.06 57.79 57.47 57.11 56.70 56.25 56.06 56.15 56.56 56.69 56.78 56.88 57.01 57.15 57.51 58.01 58.46 58.92 59.32 59.67 60.02 60.10 60.19 60.10 59.97 59.66 59.30 59.03 58.80 58.71 58.62 58.39 58.16 57.99 57.86 57.82 57.59 57.45 57.32 57.14 57.05 57.18 57.26 57.26 57.27 57.22
50.35 50.41 50.65 50.81 51.18 52.10 53.40 54.68 55.69 56.87 57.98 58.85 58.91 58.80 58.70 59.05 59.27 59.11 58.66 58.11 57.84 57.71 57.61 57.34 57.11 56.80 56.34 55.84 55.42 55.15 55.10 55.41 56.04 56.18 56.18 56.18 56.32 56.51 56.75 57.12 58.46 59.09 59.23 59.05 59.62 59.92 60.06 59.79 59.58 59.26 58.99 58.81 58.62 58.43 58.25 58.07 57.85 57.77 57.68 57.58 57.40 57.18 57.00 56.82 56.81 56.86 56.95 56.91 56.95
50.13 50.10 50.08 50.00 49.67 49.59 49.72 49.75 49.57 49.89 50.64 51.67 52.08 52.56 53.23 54.51 55.28 55.52 55.50 55.69 55.76 55.66 55.63 55.59 55.55 55.41 55.09 54.86 54.85 54.90 55.03 55.17 55.36 55.45 55.50 55.54 55.32 55.37 55.65 56.03 56.25 56.84 57.56 58.19 58.72 59.25 59.65 59.61 59.31 58.99 58.81 58.67 58.67 57.99 57.40 57.71 57.81 57.77 57.59 57.41 57.27 57.13 56.91 56.68 56.40 56.27 56.28 56.33 56.33
49.00 49.10 49.16 49.29 49.38 49.67 49.96 50.09 50.35 50.44 50.60 50.85 50.58 50.55 50.74 51.10 51.30 51.53 51.88 52.44 52.93 53.44 53.83 54.20 54.02 54.03 54.04 53.95 54.22 54.59 54.84 55.13 55.06 55.11 55.21 55.31 55.28 55.23 55.24 55.34 55.57 55.80 56.21 56.89 57.55 58.41 59.04 59.36 59.05 58.63 58.31 58.09 58.22 58.21 58.25 58.16 57.95 57.68 57.41 57.14 57.04 56.90 56.77 56.58 56.31 56.09 56.01 55.88 55.65
47.97 48.07 48.12 48.16 48.39 48.68 48.97 49.31 49.66 49.80 49.72 49.72 49.41 49.22 49.23 49.57 49.70 50.06 50.43 50.97 51.50 52.02 52.53 53.01 52.86 52.79 52.84 52.75 52.84 53.03 53.19 53.44 53.87 54.03 54.09 54.39 54.66 54.85 55.00 55.06 55.25 55.43 55.66 55.80 56.47 57.15 57.96 58.87 58.77 58.54 58.36 58.04 57.86 57.81 57.94 57.98 57.81 57.55 57.32 57.08 56.95 56.86 56.67 56.63 56.40 56.23 55.87 55.60 55.42
47.63 47.67 47.76 47.83 48.02 48.21 48.41 48.62 48.78 48.92 48.84 48.55 48.32 48.23 48.39 48.60 48.44 48.50 48.73 49.06 49.55 49.96 50.41 50.91 51.08 51.22 51.31 51.32 51.31 51.52 51.70 51.93 52.14 52.57 53.00 53.40 53.81 54.18 54.61 54.85 55.05 55.28 55.60 55.88 56.10 56.51 57.24 58.37 58.46 58.41 58.22 57.90 57.59 57.54 57.67 57.71 57.50 57.37 57.18 57.04 56.86 56.49 56.36 56.41 56.23 56.00 55.78 55.51 55.19
47.55 47.51 47.58 47.69 47.68 47.79 47.86 47.81 47.93 47.89 47.76 47.63 47.57 47.71 48.05 48.61 48.11 47.83 47.69 47.84 47.99 48.12 48.33 48.65 48.92 49.19 49.36 49.54 49.81 50.07 50.43 50.69 51.04 51.24 51.57 52.18 52.74 53.25 53.81 54.47 54.62 54.85 55.18 55.41 55.60 55.87 56.55 57.87 58.09 58.09 57.99 57.85 57.63 57.40 57.31 57.22 57.05 57.01 56.96 56.91 56.49 56.13 55.73 55.73 55.64 55.55 55.51 55.42 55.10
47.37 47.37 47.40 47.40 47.28 47.35 47.54 47.28 47.37 47.33 47.21 47.05 46.98 46.99 47.25 47.59 47.30 47.27 47.24 47.17 47.21 47.12 47.00 47.19 47.36 47.53 47.75 47.92 48.27 48.54 48.86 49.25 49.60 49.87 50.15 50.61 51.21 51.68 52.19 52.84 53.26 53.90 54.45 54.64 54.87 55.24 56.06 57.28 57.59 57.54 57.31 57.22 57.13 56.95 56.77 56.54 56.50 56.46 56.46 56.54 56.13 55.60 55.19 54.92 55.05 55.15 55.10 55.10 54.87
46.76 46.72 46.69 46.54 46.51 46.63 46.75 46.66 46.62 46.50 46.34 46.26 46.34 46.39 46.36 46.40 46.45 46.75 47.01 46.92 46.79 46.67 46.59 46.55 46.72 46.85 46.97 47.30 47.10 47.37 47.58 47.68 47.90 48.21 48.66 48.98 49.49 49.99 50.40 50.95 51.37 52.19 52.91 53.33 53.65 54.11 54.80 55.97 56.87 56.91 56.63 56.30 56.49 56.40 56.18 55.91 55.82 55.83 55.73 55.86 55.60 55.24 54.93 54.60 54.56 54.60 54.74 54.74 54.47
45.54 45.50 45.47 45.32 45.29 45.34 45.55 45.68 45.80 45.80 45.76 45.68 45.72 45.94 46.07 45.99 46.21 46.51 46.73 46.42 46.51 46.64 46.64 46.47 46.60 46.55 46.59 46.71 46.75 46.84 46.92 46.89 46.98 47.28 47.64 47.83 48.33 48.78 49.24 49.64 50.01 50.46 51.01 51.61 52.25 52.94 53.66 54.75 55.70 56.14 56.22 56.12 55.99 55.91 55.68 55.50 55.41 55.33 55.28 55.23 55.05 54.83 54.65 54.42 54.24 54.15 54.15 54.02 53.88
44.33 44.21 44.17 44.18 44.10 44.31 44.57 44.83 45.25 45.38 45.29 45.08 45.21 45.39 45.56 45.69 46.13 46.43 46.43 46.08 46.17 46.17 46.21 46.34 46.77 46.77 46.51 46.25 46.55 46.67 46.71 46.79 46.63 46.60 46.73 47.00 47.31 47.67 48.17 48.79 49.11 49.56 50.06 50.61 51.11 51.70 52.52 53.61 54.47 55.19 55.59 55.90 55.76 55.71 55.66 55.49 55.32 55.10 54.96 54.82 54.69 54.64 54.55 54.50 54.28 53.97 53.56 53.30 53.25
43.58 43.46 43.50 43.55 43.47 43.64 43.89 43.85 44.44 44.57 44.53 44.40 44.57 44.78 45.17 45.51 45.95 46.21 46.26 45.87 45.78 45.82 46.04 46.30 46.64 46.72 46.64 46.34 46.38 46.34 46.46 46.50 46.29 46.25 46.26 46.35 46.48 46.70 47.19 47.81 48.26 48.84 49.42 49.92 50.19 50.60 51.15 51.88 53.06 53.92 54.55 55.04 54.94 55.16 55.38 55.48 55.30 55.18 55.00 54.78 54.64 54.55 54.50 54.40 54.27 54.01 53.47 53.07 52.84
43.13 43.09 43.13 43.21 43.09 43.18 43.22 43.22 43.68 43.72 43.68 43.68 43.84 44.06 44.40 44.74 45.17 45.47 45.65 45.52 45.65 45.78 45.86 45.86 46.16 46.37 46.59 46.76 46.51 46.38 46.29 46.25 46.08 46.04 45.95 46.09 46.22 46.44 46.66 47.01 47.41 47.90 48.39 48.93 49.46 49.87 50.19 50.73 51.82 52.50 53.00 53.63 53.86 54.13 54.44 54.75 54.85 54.85 54.85 54.81 54.67 54.58 54.40 54.22 54.13 53.96 53.61 53.20 52.79
42.72 42.72 42.76 42.76 42.59 42.51 42.55 42.63 42.97 43.09 42.96 42.83 42.99 43.29 43.67 43.93 44.23 44.61 44.83 44.87 45.00 45.13 45.13 45.13 45.47 45.73 45.99 46.33 46.21 46.12 46.13 46.21 46.12 46.08 46.17 46.26 46.35 46.52 46.74 46.87 47.18 47.45 47.67 48.07 48.65 49.13 49.63 50.13 50.94 51.49 51.90 52.45 53.08 53.71 54.16 54.30 54.35 54.40 54.40 54.53 54.53 54.49 54.35 54.22 54.13 53.86 53.60 53.24 52.97
42.15 42.16 42.24 42.20 42.03 41.95 41.94 42.11 42.24 42.20 42.10 42.05 42.39 42.69 42.95 43.25 43.33 43.59 43.80 43.84 43.79 43.79 43.88 44.18 44.57 44.74 44.87 45.00 45.26 45.56 45.78 45.78 45.82 45.91 46.00 46.09 46.22 46.43 46.65 46.82 47.13 47.26 47.44 47.62 47.97 48.41 48.94 49.53 50.12 50.75 51.33 51.84 52.55 53.36 53.99 54.32 54.33 54.30 54.21 54.13 54.21 54.26 54.21 54.08 53.90 53.81 53.55 53.28 53.01
41.44 41.53 41.54 41.49 41.37 41.37 41.45 41.76 41.68 41.63 41.67 41.69 41.86 42.07 42.29 42.46 42.59 42.82 43.03 43.02 43.05 43.00 42.96 43.32 43.71 43.88 43.96 44.00 44.30 44.74 45.08 44.85 44.98 45.20 45.34 45.51 45.69 45.87 46.13 46.35 46.74 46.91 47.09 47.31 47.58 47.93 48.37 48.81 49.35 49.93 50.56 51.23 51.89 52.65 53.31 53.77 53.98 54.01 53.97 53.89 53.89 53.89 53.75 53.71 53.67 53.54 53.36 53.14 52.87
40.73 40.87 40.89 40.80 40.72 40.81 40.90 41.08 41.00 41.08 41.25 41.51 41.44 41.48 41.70 41.78 42.05 42.24 42.37 42.50 42.71 42.53 42.35 42.44 42.88 43.06 43.14 43.26 43.39 43.73 44.03 44.33 44.31 44.44 44.62 44.84 45.02 45.20 45.42 45.65 46.00 46.26 46.53 46.83 47.14 47.45 47.81 48.25 48.70 49.27 49.75 50.41 51.02 51.72 52.48 53.07 53.29 53.40 53.46 53.52 53.52 53.39 53.34 53.29 53.11 53.12 52.94 52.82 52.55
40.19 40.24 40.34 40.26 40.18 40.18 40.27 40.32 40.33 40.46 40.67 40.99 41.06 41.09 41.18 41.31 41.40 41.54 41.72 42.04 42.26 42.18 42.04 41.85 41.85 42.03 42.16 42.38 42.56 42.87 43.34 43.91 43.84 43.87 44.08 44.21 44.26 44.48 44.80 45.15 45.38 45.78 46.09 46.35 46.70 47.02 47.37 47.91 48.48 49.01 49.45 49.88 50.31 51.05 51.75 52.34 52.60 52.86 52.92 53.06 53.07 52.99 52.89 52.84 52.74 52.70 52.53 52.40 52.23
39.51 39.65 39.74 39.75 39.63 39.94 40.07 39.94 39.95 39.95 40.13 40.35 40.53 40.56 40.64 40.73 40.73 40.78 40.87 41.16 41.38 41.44 41.31 41.30 41.11 41.11 41.29 41.43 41.70 42.15 42.69 43.48 43.37 43.53 43.78 43.95 43.99 44.17 44.39 44.66 44.62 44.84 45.24 45.51 45.99 46.39 46.88 47.51 48.09 48.62 49.15 49.54 49.85 50.49 51.12 51.65 51.90 52.25 52.46 52.62 52.62 52.54 52.49 52.48 52.43 52.26 52.12 52.13 51.91
38.67 38.85 39.03 39.22 39.13 39.50 39.85 39.50 39.14 39.14 39.26 39.49 39.58 39.75 39.93 40.02 39.89 39.75 39.71 39.63 40.17 40.17 40.19 40.51 40.56 40.56 40.59 40.77 40.95 41.31 41.77 42.31 42.52 42.86 43.15 43.19 43.28 43.32 43.40 43.67 43.49 43.67 44.21 45.01 45.41 45.81 46.26 46.93 47.47 48.00 48.49 49.03 49.68 50.24 50.66 50.96 51.24 51.57 51.87 52.12 52.22 52.18 52.13 52.03 51.95 51.81 51.77 51.68 51.73
37.57 37.79 38.19 38.50 38.02 38.03 38.08 37.90 37.90 37.98 38.07 38.07 38.20 38.34 38.57 38.89 38.98 38.94 38.81 38.53 38.62 38.71 39.05 40.01 40.31 40.20 40.17 40.35 40.39 40.48 40.74 40.96 41.45 41.76 41.98 42.24 42.47 42.51 42.55 42.96 42.95 43.22 43.81 44.80 45.60 46.17 46.71 47.15 47.28 47.42 47.91 48.70 49.43 49.92 50.26 50.69 50.88 51.04 51.29 51.48 51.67 51.72 51.77 51.73 51.59 51.50 51.37 51.23 51.32
36.46 36.83 37.05 36.90 36.83 36.93 36.93 36.80 36.93 36.94 36.89 36.85 36.90 37.04 37.27 37.59 38.01 38.32 38.28 37.96 37.82 37.96 38.32 38.77 39.22 39.73 40.19 40.37 40.30 40.19 40.05 39.86 40.40 40.81 41.17 41.58 41.89 41.94 42.17 42.84 43.12 43.53 44.12 44.82 46.47 47.65 48.27 48.48 48.10 47.84 47.87 48.36 48.66 49.16 49.71 50.38 50.54 50.78 50.84 50.85 51.04 51.18 51.27 51.27 51.28 51.19 51.14 50.91 50.95
35.73 35.87 35.96 35.87 35.93 35.89 35.76 35.71 35.85 35.85 35.91 36.05 36.23 36.37 36.52 36.67 37.32 37.55 37.63 37.68 37.73 37.91 38.09 38.35 38.80 39.77 40.63 40.46 40.30 40.14 40.05 40.20 40.33 40.51 40.74 41.11 41.16 41.29 41.66 42.30 42.81 43.31 43.93 45.08 46.64 47.72 48.46 48.94 48.90 48.55 47.98 47.39 47.43 47.86 48.36 48.99 49.60 49.98 50.26 50.33 50.55 50.64 50.69 50.69 50.78 50.78 50.78 50.77 50.59
34.92 35.10 35.19 35.25 35.21 35.17 35.17 35.21 35.40 35.50 35.64 36.01 36.24 36.52 36.81 37.00 37.50 37.50 37.35 37.38 37.62 37.81 38.03 38.40 38.69 39.77 40.61 40.13 39.73 39.71 39.94 40.46 40.41 40.36 40.32 40.42 40.57 40.71 40.98 41.54 42.18 42.77 43.76 45.34 46.59 47.46 47.97 48.31 48.49 48.50 47.99 46.85 46.51 46.29 46.37 46.83 47.49 48.39 49.13 49.78 50.02 50.11 50.16 50.07 50.20 50.25 50.34 50.38 50.20
34.15 34.43 34.58 34.73 34.86 35.00 35.04 35.18 35.50 35.78 36.01 36.34 36.48 36.78 37.02 37.15 37.06 37.16 37.19 37.26 37.46 37.71 38.05 38.50 38.92 39.54 39.98 39.77 39.47 39.44 39.62 39.94 40.18 40.29 40.34 40.30 40.30 40.34 40.53 41.09 41.54 42.46 43.80 45.52 46.42 47.03 47.46 47.76 48.02 48.11 47.90 47.16 46.21 45.78 45.47 45.29 45.75 46.61 47.63 48.67 49.18 49.42 49.43 49.30 49.51 49.60 49.74 49.71 49.67
33.58 33.96 34.32 34.61 34.66 34.84 35.06 35.16 35.43 35.66 35.94 36.17 36.50 36.65 36.79 36.88 36.83 36.83 36.84 36.96 36.98 37.26 37.69 38.29 39.04 39.29 39.25 39.09 39.09 39.21 39.29 39.36 39.80 40.00 40.10 39.91 39.87 39.97 40.19 40.54 40.81 42.00 43.57 45.43 45.90 46.34 46.68 47.03 47.24 47.55 47.59 47.42 46.30 45.65 45.26 44.99 44.99 45.42 46.28 47.34 48.23 48.78 49.02 49.07 49.11 49.16 49.21 49.12 49.04
33.60 34.02 34.21 34.21 34.22 34.40 34.54 34.66 34.85 35.17 35.55 36.00 36.02 36.09 36.17 36.25 36.20 36.26 36.36 36.33 36.42 36.85 37.51 38.09 38.26 38.20 38.17 38.25 38.52 38.71 38.94 39.11 39.36 39.54 39.36 39.22 39.31 39.64 39.97 40.40 40.40 41.33 42.88 44.83 45.39 45.69 45.95 46.20 46.38 46.64 46.77 46.90 45.95 45.13 44.52 44.35 44.31 44.56 45.12 46.00 47.06 47.86 48.40 48.54 48.54 48.45 48.45 48.59 48.45
33.34 33.57 33.67 33.63 33.63 33.69 33.78 33.87 34.10 34.51 34.93 35.41 35.11 35.12 35.19 35.23 35.28 35.34 35.48 35.52 36.08 36.98 37.50 37.27 37.01 36.95 37.17 37.58 37.77 37.99 38.13 38.42 38.65 38.75 38.79 38.70 39.30 39.53 39.57 39.51 39.50 40.55 42.35 44.31 44.87 45.17 45.34 45.47 45.56 45.73 45.86 46.04 45.26 44.48 43.78 43.48 43.55 43.85 44.33 44.94 45.73 46.62 47.33 47.96 48.00 47.92 47.92 47.92 47.83
32.60 32.81 32.91 33.16 33.16 33.17 33.34 33.52 33.79 34.25 34.48 34.24 34.13 34.21 34.34 34.34 34.39 34.57 34.80 35.12 35.76 36.09 36.11 35.82 35.95 36.22 36.53 36.81 36.89 37.08 37.35 37.68 37.91 38.19 38.47 38.70 38.74 38.77 38.86 39.23 39.27 40.42 42.08 43.92 44.31 44.61 44.78 44.91 44.96 45.00 45.04 45.17 44.52 43.66 42.87 42.50 42.62 42.97 43.37 43.94 44.59 45.38 46.31 47.11 47.51 47.69 47.64 47.60 47.51
32.33 32.46 32.84 33.58 33.41 33.55 33.61 33.43 33.69 33.92 33.90 33.39 33.28 33.54 33.90 33.96 33.96 34.05 34.33 35.00 35.28 35.06 34.80 35.03 35.43 35.74 35.96 36.15 36.38 36.52 36.85 37.23 37.51 37.92 38.38 38.85 38.80 38.55 38.58 38.91 39.30 40.56 42.10 43.32 43.67 43.93 44.18 44.27 44.40 44.44 44.52 44.61 43.91 42.98 42.08 41.83 42.21 42.48 42.83 43.27 43.88 44.67 45.51 46.26 46.84 47.24 47.55 47.60 47.64
32.38 32.39 32.76 33.32 33.55 33.75 33.77 33.70 33.80 33.55 33.20 32.77 32.90 33.08 33.32 33.28 33.50 33.69 34.20 34.98 35.13 34.87 34.64 34.87 35.09 35.31 35.58 35.76 36.00 36.25 36.69 37.45 37.40 37.30 37.34 37.95 38.25 38.23 38.17 38.36 38.96 40.41 41.87 42.64 42.98 43.15 43.45 43.54 43.71 43.88 44.01 44.14 43.46 42.49 41.80 41.71 42.10 42.28 42.37 42.59 43.08 43.65 44.36 45.11 45.91 46.62 47.24 47.60 47.73
32.11 32.12 32.35 32.73 32.87 33.06 33.20 33.13 33.18 32.95 32.63 32.49 32.69 32.75 32.75 32.53 32.76 33.21 33.99 35.15 35.21 34.86 34.43 34.43 34.64 34.88 35.21 35.49 35.53 35.92 36.29 36.65 36.64 36.70 36.81 37.13 37.33 37.53 37.61 37.69 38.16 39.66 41.26 42.08 42.34 42.47 42.73 42.94 43.11 43.36 43.49 43.49 42.88 42.40 41.98 41.98 41.98 41.94 41.99 42.09 42.41 42.82 43.32 43.90 44.81 45.69 46.48 47.24 47.46
31.67 31.72 31.99 32.40 32.23 32.19 32.20 32.21 32.25 32.27 32.34 32.25 32.33 32.48 32.51 32.57 32.43 32.83 33.66 35.14 34.93 34.40 34.13 34.36 34.45 34.32 34.32 34.58 35.04 35.63 36.03 35.92 36.04 36.26 36.51 36.74 36.84 36.90 36.93 37.00 37.37 38.78 40.53 41.57 41.79 42.00 42.17 42.43 42.68 42.90 42.98 42.82 42.38 42.27 42.26 42.16 42.02 41.93 41.94 41.94 42.17 42.49 42.96 43.33 43.99 44.82 45.69 46.57 46.97
31.23 31.23 31.27 31.63 31.78 31.80 31.76 31.81 31.76 31.76 31.76 31.84 31.77 31.82 32.09 32.35 32.51 32.77 33.40 34.50 33.75 33.65 33.89 34.13 34.13 34.02 33.96 34.03 34.56 34.94 35.32 35.73 35.88 36.05 36.16 36.48 36.55 36.55 36.59 36.67 36.81 37.90 39.39 40.88 41.36 41.67 41.88 42.18 42.43 42.56 42.43 41.96 41.77 41.83 42.03 42.07 42.02 42.02 41.93 41.94 42.08 42.36 42.74 43.11 43.63 44.33 45.12 45.87 46.40
30.29 30.47 30.56 30.70 31.07 31.23 31.19 31.06 30.81 30.79 30.86 31.08 30.83 31.14 31.58 31.85 32.40 32.80 33.34 34.36 33.17 33.15 33.63 33.77 33.63 33.70 33.90 34.17 34.55 34.83 35.07 35.38 35.73 35.81 35.76 35.77 36.12 36.17 36.15 36.13 36.38 37.19 38.52 40.15 40.98 41.46 41.68 41.97 42.23 42.31 42.05 41.28 41.23 41.41 41.65 41.85 41.88 41.88 41.88 41.84 41.99 42.18 42.56 42.88 43.45 44.06 44.72 45.30 45.42
29.54 29.63 29.68 29.74 30.16 30.33 30.29 29.99 29.78 29.84 30.04 30.38 30.62 31.08 31.56 31.85 32.14 32.79 33.53 33.84 32.80 32.86 33.39 33.43 33.42 33.63 34.07 34.67 34.82 34.73 34.65 34.69 35.11 35.28 35.44 35.23 35.70 36.16 36.25 35.88 35.93 36.66 37.83 39.58 40.53 41.04 41.34 41.68 41.98 42.10 41.89 41.28 41.04 41.12 41.26 41.49 41.52 41.56 41.61 41.74 41.89 42.04 42.32 42.64 43.04 43.61 44.23 44.76 44.85
29.05 29.06 29.00 28.89 29.31 29.60 29.65 29.50 29.51 29.51 29.69 30.32 30.88 31.26 31.44 31.64 32.51 33.43 33.96 33.80 32.91 32.86 33.14 33.22 33.12 33.47 34.16 35.04 34.81 34.35 34.07 34.10 34.21 34.53 34.92 35.04 35.48 36.28 36.63 35.82 35.58 36.03 37.13 38.81 39.94 40.62 41.00 41.38 41.68 41.97 41.80 41.12 40.92 40.96 41.13 41.26 41.20 41.23 41.37 41.55 41.66 41.80 41.99 42.27 42.63 42.98 43.42 44.01 44.49
28.89 28.94 28.98 28.94 28.95 29.10 29.29 29.48 29.89 29.94 29.98 30.26 30.49 30.97 31.79 32.72 32.93 33.15 33.24 33.34 32.97 33.00 33.23 33.49 33.53 33.70 34.11 34.93 34.76 34.24 33.67 33.56 33.68 33.90 34.29 34.85 35.12 35.85 36.26 35.66 35.40 35.60 36.27 37.66 39.13 40.14 40.74 41.25 41.54 41.89 41.80 41.17 40.93 41.00 41.21 41.33 41.09 41.00 41.01 41.33 41.60 41.66 41.66 41.81 42.04 42.31 42.62 43.11 43.87
MSLP
1013.41 1013.53 1013.57 1013.65 1013.65 1013.73 1013.77 1013.73 1013.77 1013.81 1013.85 1013.93 1014.01 1014.09 1014.13 1014.17 1014.17 1014.17 1014.17 1014.17 1014.17 1014.17 1014.13 1014.09 1014.09 1014.09 1014.09 1014.13 1014.21 1014.33 1014.41 1014.53 1014.61 1014.65 1014.77 1014.81 1014.81 1014.85 1014.85 1014.81 1014.81 1014.81 1014.81 1014.73 1014.65 1014.61 1014.53 1014.49 1014.45 1014.41 1014.37 1014.41 1014.45 1014.41 1014.37 1014.33 1014.25 1014.21 1014.13 1014.09 1013.93 1013.85 1013.77 1013.65 1013.57 1013.53 1013.45 1013.45 1013.41
1013.37 1013.45 1013.49 1013.53 1013.57 1013.65 1013.65 1013.69 1013.73 1013.77 1013.81 1013.93 1013.97 1014.05 1014.09 1014.09 1014.13 1014.13 1014.13 1014.17 1014.17 1014.17 1014.17 1014.21 1014.21 1014.21 1014.21 1014.21 1014.29 1014.37 1014.45 1014.53 1014.61 1014.65 1014.69 1014.77 1014.81 1014.81 1014.81 1014.73 1014.73 1014.69 1014.65 1014.57 1014.49 1014.45 1014.37 1014.33 1014.33 1014.33 1014.29 1014.29 1014.33 1014.25 1014.21 1014.13 1014.09 1014.09 1013.97 1013.89 1013.81 1013.77 1013.69 1013.65 1013.53 1013.53 1013.53 1013.49 1013.49
1013.37 1013.41 1013.49 1013.53 1013.57 1013.65 1013.69 1013.73 1013.81 1013.85 1013.93 1013.97 1013.97 1014.05 1014.09 1014.09 1014.09 1014.13 1014.13 1014.17 1014.17 1014.21 1014.25 1014.29 1014.29 1014.29 1014.29 1014.29 1014.37 1014.41 1014.45 1014.53 1014.53 1014.65 1014.65 1014.69 1014.69 1014.65 1014.61 1014.53 1014.49 1014.41 1014.37 1014.37 1014.29 1014.21 1014.21 1014.21 1014.21 1014.21 1014.21 1014.17 1014.17 1014.09 1014.01 1013.93 1013.93 1013.93 1013.85 1013.77 1013.69 1013.65 1013.61 1013.57 1013.53 1013.53 1013.53 1013.53 1013.53
1013.49 1013.57 1013.65 1013.69 1013.77 1013.81 1013.81 1013.85 1013.93 1013.93 1014.01 1014.05 1014.09 1014.09 1014.17 1014.17 1014.17 1014.21 1014.21 1014.21 1014.21 1014.29 1014.33 1014.37 1014.37 1014.33 1014.33 1014.37 1014.37 1014.41 1014.45 1014.45 1014.49 1014.49 1014.45 1014.41 1014.37 1014.33 1014.25 1014.21 1014.17 1014.13 1014.09 1014.09 1014.09 1014.09 1014.13 1014.17 1014.17 1014.13 1014.09 1014.01 1013.97 1013.93 1013.89 1013.81 1013.81 1013.81 1013.73 1013.65 1013.65 1013.61 1013.53 1013.53 1013.49 1013.49 1013.53 1013.53 1013.53
1013.69 1013.73 1013.81 1013.89 1013.93 1014.01 1014.09 1014.09 1014.13 1014.17 1014.17 1014.21 1014.25 1014.33 1014.33 1014.33 1014.29 1014.25 1014.29 1014.33 1014.33 1014.33 1014.33 1014.33 1014.33 1014.29 1014.29 1014.37 1014.37 1014.37 1014.37 1014.33 1014.25 1014.21 1014.21 1014.17 1014.09 1014.09 1014.05 1014.01 1014.01 1013.97 1013.97 1014.01 1014.05 1014.09 1014.09 1014.13 1014.09 1014.09 1014.01 1013.93 1013.81 1013.81 1013.73 1013.69 1013.69 1013.65 1013.61 1013.57 1013.53 1013.53 1013.53 1013.49 1013.45 1013.45 1013.45 1013.45 1013.49
1013.93 1013.93 1013.93 1013.97 1014.09 1014.13 1014.21 1014.29 1014.33 1014.37 1014.41 1014.37 1014.41 1014.49 1014.49 1014.45 1014.41 1014.37 1014.37 1014.37 1014.37 1014.33 1014.25 1014.21 1014.21 1014.21 1014.21 1014.21 1014.21 1014.17 1014.13 1014.13 1014.09 1014.09 1014.05 1014.05 1014.01 1013.97 1013.93 1013.93 1013.93 1013.93 1013.93 1013.97 1013.97 1014.01 1014.05 1014.09 1014.05 1013.97 1013.93 1013.85 1013.77 1013.69 1013.65 1013.61 1013.61 1013.57 1013.53 1013.53 1013.45 1013.45 1013.41 1013.41 1013.37 1013.37 1013.41 1013.41 1013.41
1014.09 1014.09 1014.09 1014.17 1014.21 1014.29 1014.37 1014.41 1014.49 1014.53 1014.53 1014.53 1014.61 1014.65 1014.65 1014.61 1014.53 1014.49 1014.41 1014.37 1014.33 1014.29 1014.21 1014.17 1014.17 1014.17 1014.17 1014.17 1014.13 1014.13 1014.13 1014.09 1014.05 1014.05 1014.05 1014.01 1013.93 1013.93 1013.89 1013.89 1013.89 1013.89 1013.93 1013.93 1013.93 1013.93 1013.93 1013.97 1013.97 1013.93 1013.85 1013.81 1013.69 1013.65 1013.53 1013.53 1013.53 1013.49 1013.41 1013.37 1013.37 1013.33 1013.37 1013.37 1013.33 1013.33 1013.37 1013.37 1013.37
1014.29 1014.33 1014.37 1014.41 1014.49 1014.53 1014.57 1014.61 1014.65 1014.69 1014.77 1014.77 1014.81 1014.81 1014.73 1014.65 1014.61 1014.53 1014.53 1014.45 1014.49 1014.49 1014.41 1014.37 1014.37 1014.33 1014.33 1014.33 1014.33 1014.29 1014.25 1014.21 1014.13 1014.09 1014.01 1014.01 1013.93 1013.85 1013.81 1013.85 1013.81 1013.81 1013.81 1013.81 1013.81 1013.85 1013.81 1013.81 1013.85 1013.85 1013.81 1013.77 1013.65 1013.61 1013.53 1013.49 1013.41 1013.37 1013.29 1013.25 1013.21 1013.25 1013.25 1013.25 1013.25 1013.25 1013.25 1013.25 1013.25
1014.57 1014.65 1014.65 1014.65 1014.73 1014.81 1014.81 1014.89 1014.93 1014.97 1015.01 1015.05 1015.01 1014.93 1014.85 1014.81 1014.77 1014.73 1014.73 1014.77 1014.77 1014.73 1014.65 1014.65 1014.65 1014.61 1014.53 1014.53 1014.53 1014.45 1014.37 1014.29 1014.21 1014.13 1014.05 1013.97 1013.89 1013.85 1013.81 1013.81 1013.81 1013.77 1013.77 1013.77 1013.77 1013.81 1013.81 1013.81 1013.81 1013.73 1013.69 1013.65 1013.65 1013.57 1013.53 1013.45 1013.37 1013.33 1013.25 1013.13 1013.09 1013.09 1013.13 1013.13 1013.17 1013.17 1013.17 1013.17 1013.17
1014.85 1014.93 1014.93 1014.93 1015.01 1015.05 1015.05 1015.09 1015.13 1015.21 1015.25 1015.25 1015.21 1015.13 1015.05 1014.97 1014.97 1014.97 1014.97 1015.01 1014.93 1014.89 1014.89 1014.89 1014.81 1014.81 1014.73 1014.69 1014.65 1014.61 1014.53 1014.41 1014.33 1014.21 1014.13 1014.05 1013.97 1013.93 1013.89 1013.81 1013.81 1013.81 1013.81 1013.77 1013.77 1013.77 1013.77 1013.77 1013.73 1013.65 1013.61 1013.57 1013.57 1013.53 1013.49 1013.45 1013.37 1013.33 1013.25 1013.13 1013.09 1013.05 1013.05 1013.05 1013.05 1013.09 1013.09 1013.09 1013.09
1015.13 1015.17 1015.21 1015.25 1015.29 1015.29 1015.29 1015.37 1015.37 1015.41 1015.45 1015.45 1015.41 1015.37 1015.29 1015.21 1015.21 1015.17 1015.13 1015.09 1015.05 1015.05 1015.05 1015.05 1014.97 1014.93 1014.85 1014.85 1014.81 1014.73 1014.65 1014.57 1014.49 1014.37 1014.29 1014.21 1014.21 1014.13 1014.09 1014.01 1013.97 1013.93 1013.89 1013.81 1013.81 1013.81 1013.81 1013.77 1013.69 1013.65 1013.57 1013.53 1013.53 1013.45 1013.41 1013.41 1013.37 1013.33 1013.25 1013.17 1013.09 1013.05 1013.01 1013.01 1013.05 1013.05 1013.05 1013.01 1013.01
1015.45 1015.49 1015.53 1015.53 1015.53 1015.53 1015.53 1015.61 1015.65 1015.65 1015.65 1015.65 1015.61 1015.53 1015.53 1015.49 1015.41 1015.37 1015.25 1015.25 1015.25 1015.25 1015.21 1015.17 1015.09 1015.09 1015.05 1015.01 1014.93 1014.85 1014.77 1014.69 1014.65 1014.53 1014.49 1014.41 1014.37 1014.29 1014.25 1014.21 1014.13 1014.09 1014.01 1013.93 1013.89 1013.85 1013.85 1013.81 1013.73 1013.65 1013.57 1013.49 1013.45 1013.41 1013.37 1013.37 1013.33 1013.29 1013.21 1013.17 1013.09 1013.09 1013.05 1013.01 1013.05 1013.05 1013.01 1012.97 1012.97
1015.73 1015.73 1015.77 1015.81 1015.81 1015.77 1015.81 1015.81 1015.81 1015.81 1015.81 1015.81 1015.73 1015.69 1015.65 1015.65 1015.53 1015.49 1015.41 1015.37 1015.37 1015.37 1015.29 1015.25 1015.21 1015.17 1015.13 1015.09 1015.01 1014.93 1014.85 1014.77 1014.73 1014.65 1014.61 1014.57 1014.53 1014.45 1014.37 1014.37 1014.29 1014.21 1014.13 1014.09 1013.97 1013.93 1013.89 1013.81 1013.73 1013.65 1013.53 1013.45 1013.37 1013.37 1013.29 1013.25 1013.25 1013.21 1013.13 1013.09 1013.09 1013.05 1013.05 1013.05 1013.05 1013.05 1013.05 1013.05 1013.01
1015.89 1015.89 1015.93 1015.93 1015.93 1015.93 1015.93 1015.93 1015.93 1015.93 1015.93 1015.89 1015.81 1015.81 1015.73 1015.69 1015.65 1015.61 1015.53 1015.53 1015.49 1015.45 1015.37 1015.37 1015.25 1015.25 1015.25 1015.17 1015.09 1015.01 1014.93 1014.85 1014.81 1014.77 1014.69 1014.65 1014.61 1014.57 1014.53 1014.45 1014.37 1014.33 1014.25 1014.21 1014.09 1014.01 1013.93 1013.81 1013.73 1013.61 1013.53 1013.41 1013.33 1013.25 1013.21 1013.17 1013.17 1013.09 1013.05 1013.01 1012.97 1012.93 1012.93 1012.93 1012.97 1012.97 1013.01 1013.01 1013.01
1015.97 1015.97 1016.01 1015.97 1016.01 1016.01 1016.01 1016.05 1016.05 1016.01 1016.01 1016.01 1015.93 1015.89 1015.85 1015.81 1015.77 1015.69 1015.65 1015.65 1015.57 1015.53 1015.49 1015.45 1015.37 1015.29 1015.25 1015.21 1015.13 1015.09 1015.01 1014.93 1014.89 1014.81 1014.77 1014.73 1014.69 1014.65 1014.61 1014.57 1014.53 1014.41 1014.37 1014.29 1014.17 1014.09 1013.97 1013.85 1013.73 1013.61 1013.49 1013.37 1013.25 1013.13 1013.09 1013.05 1013.01 1013.01 1012.97 1012.93 1012.93 1012.89 1012.89 1012.81 1012.85 1012.89 1012.89 1012.89 1012.89
1016.09 1016.09 1016.09 1016.09 1016.09 1016.13 1016.17 1016.21 1016.21 1016.17 1016.17 1016.13 1016.09 1016.01 1015.97 1015.93 1015.89 1015.81 1015.77 1015.69 1015.65 1015.57 1015.53 1015.53 1015.45 1015.37 1015.25 1015.21 1015.17 1015.13 1015.09 1015.01 1014.97 1014.93 1014.89 1014.85 1014.81 1014.77 1014.69 1014.65 1014.61 1014.53 1014.45 1014.37 1014.21 1014.09 1013.97 1013.85 1013.73 1013.61 1013.49 1013.33 1013.21 1013.09 1012.97 1012.93 1012.93 1012.89 1012.85 1012.85 1012.81 1012.81 1012.81 1012.77 1012.77 1012.77 1012.77 1012.77 1012.77
1016.21 1016.21 1016.25 1016.25 1016.25 1016.29 1016.33 1016.37 1016.37 1016.33 1016.33 1016.29 1016.21 1016.17 1016.09 1016.09 1015.97 1015.93 1015.85 1015.85 1015.77 1015.69 1015.65 1015.57 1015.53 1015.45 1015.37 1015.29 1015.25 1015.25 1015.21 1015.17 1015.09 1015.09 1015.09 1015.01 1014.93 1014.89 1014.81 1014.77 1014.69 1014.61 1014.53 1014.41 1014.29 1014.13 1013.97 1013.81 1013.65 1013.53 1013.41 1013.29 1013.13 1013.01 1012.89 1012.81 1012.81 1012.77 1012.73 1012.69 1012.69 1012.65 1012.65 1012.65 1012.65 1012.61 1012.61 1012.61 1012.61
1016.41 1016.45 1016.45 1016.45 1016.49 1016.53 1016.53 1016.53 1016.49 1016.49 1016.45 1016.41 1016.37 1016.29 1016.21 1016.17 1016.13 1016.05 1015.97 1015.93 1015.93 1015.89 1015.81 1015.73 1015.65 1015.61 1015.53 1015.49 1015.45 1015.41 1015.37 1015.37 1015.29 1015.25 1015.21 1015.13 1015.05 1014.97 1014.93 1014.85 1014.73 1014.65 1014.57 1014.49 1014.37 1014.17 1013.97 1013.81 1013.65 1013.49 1013.37 1013.21 1013.05 1012.93 1012.81 1012.73 1012.65 1012.61 1012.57 1012.57 1012.53 1012.53 1012.53 1012.49 1012.49 1012.45 1012.45 1012.45 1012.41
1016.73 1016.69 1016.69 1016.69 1016.73 1016.73 1016.69 1016.65 1016.65 1016.65 1016.61 1016.53 1016.49 1016.45 1016.37 1016.29 1016.25 1016.21 1016.13 1016.09 1016.09 1016.09 1016.01 1015.93 1015.85 1015.77 1015.73 1015.73 1015.65 1015.65 1015.61 1015.57 1015.53 1015.41 1015.33 1015.25 1015.13 1015.09 1014.97 1014.89 1014.81 1014.65 1014.57 1014.45 1014.29 1014.13 1013.97 1013.81 1013.61 1013.45 1013.29 1013.09 1012.97 1012.81 1012.69 1012.57 1012.53 1012.45 1012.41 1012.37 1012.37 1012.37 1012.37 1012.33 1012.33 1012.33 1012.33 1012.33 1012.29
1017.05 1017.05 1017.01 1017.01 1017.01 1016.97 1016.93 1016.93 1016.89 1016.85 1016.81 1016.73 1016.65 1016.65 1016.61 1016.53 1016.49 1016.45 1016.37 1016.33 1016.29 1016.25 1016.21 1016.17 1016.09 1016.05 1015.97 1015.93 1015.89 1015.81 1015.81 1015.73 1015.65 1015.57 1015.45 1015.37 1015.25 1015.13 1015.05 1014.93 1014.81 1014.65 1014.53 1014.41 1014.25 1014.09 1013.93 1013.73 1013.57 1013.37 1013.25 1013.09 1012.89 1012.73 1012.61 1012.49 1012.37 1012.33 1012.25 1012.21 1012.21 1012.17 1012.17 1012.13 1012.17 1012.17 1012.13 1012.13 1012.13
1017.37 1017.33 1017.33 1017.29 1017.25 1017.25 1017.25 1017.21 1017.17 1017.09 1017.05 1016.97 1016.93 1016.93 1016.89 1016.81 1016.81 1016.77 1016.73 1016.65 1016.57 1016.53 1016.49 1016.45 1016.41 1016.37 1016.29 1016.21 1016.09 1016.01 1015.93 1015.85 1015.81 1015.69 1015.53 1015.41 1015.29 1015.17 1015.09 1014.93 1014.81 1014.65 1014.53 1014.37 1014.21 1014.05 1013.85 1013.65 1013.53 1013.33 1013.17 1013.01 1012.85 1012.69 1012.53 1012.41 1012.33 1012.21 1012.13 1012.09 1012.01 1011.93 1011.93 1011.93 1011.93 1011.97 1011.97 1011.97 1011.97
1017.61 1017.57 1017.53 1017.53 1017.53 1017.45 1017.45 1017.41 1017.37 1017.37 1017.33 1017.29 1017.25 1017.21 1017.17 1017.09 1017.09 1017.05 1016.97 1016.93 1016.85 1016.81 1016.73 1016.69 1016.65 1016.57 1016.53 1016.37 1016.33 1016.17 1016.01 1015.93 1015.81 1015.69 1015.61 1015.45 1015.29 1015.17 1015.05 1014.93 1014.81 1014.65 1014.49 1014.37 1014.21 1014.01 1013.81 1013.65 1013.45 1013.29 1013.13 1012.97 1012.85 1012.69 1012.53 1012.37 1012.21 1012.09 1012.01 1011.93 1011.85 1011.81 1011.73 1011.69 1011.69 1011.73 1011.77 1011.77 1011.81
1017.81 1017.81 1017.77 1017.77 1017.73 1017.69 1017.65 1017.65 1017.61 1017.57 1017.57 1017.53 1017.53 1017.45 1017.41 1017.37 1017.29 1017.25 1017.21 1017.13 1017.09 1017.01 1016.93 1016.85 1016.77 1016.65 1016.61 1016.53 1016.37 1016.21 1016.09 1015.93 1015.77 1015.65 1015.53 1015.41 1015.29 1015.13 1014.97 1014.85 1014.77 1014.61 1014.49 1014.29 1014.13 1013.97 1013.81 1013.61 1013.41 1013.25 1013.09 1012.93 1012.81 1012.61 1012.45 1012.29 1012.17 1012.05 1011.93 1011.81 1011.73 1011.65 1011.53 1011.53 1011.49 1011.49 1011.49 1011.49 1011.53
1018.09 1018.05 1018.01 1017.97 1017.93 1017.93 1017.93 1017.85 1017.81 1017.81 1017.77 1017.73 1017.65 1017.61 1017.53 1017.49 1017.41 1017.37 1017.29 1017.25 1017.17 1017.09 1017.01 1016.93 1016.81 1016.69 1016.57 1016.45 1016.37 1016.21 1016.05 1015.89 1015.73 1015.53 1015.37 1015.25 1015.17 1015.05 1014.89 1014.77 1014.65 1014.53 1014.37 1014.21 1014.05 1013.89 1013.73 1013.53 1013.37 1013.25 1013.05 1012.89 1012.69 1012.53 1012.37 1012.21 1012.09 1011.93 1011.81 1011.69 1011.57 1011.49 1011.41 1011.37 1011.29 1011.25 1011.25 1011.25 1011.25
1018.29 1018.25 1018.21 1018.21 1018.17 1018.13 1018.09 1018.05 1017.97 1017.93 1017.89 1017.81 1017.81 1017.73 1017.65 1017.57 1017.49 1017.37 1017.33 1017.25 1017.17 1017.09 1016.97 1016.85 1016.77 1016.61 1016.45 1016.33 1016.21 1016.09 1015.93 1015.81 1015.65 1015.49 1015.29 1015.09 1014.97 1014.89 1014.77 1014.65 1014.53 1014.37 1014.17 1014.01 1013.81 1013.69 1013.57 1013.45 1013.33 1013.17 1012.97 1012.81 1012.65 1012.45 1012.25 1012.09 1011.97 1011.89 1011.73 1011.57 1011.45 1011.33 1011.25 1011.17 1011.09 1011.09 1011.01 1010.97 1010.97
1018.41 1018.37 1018.37 1018.33 1018.29 1018.21 1018.21 1018.13 1018.09 1018.01 1017.93 1017.89 1017.81 1017.69 1017.65 1017.53 1017.45 1017.37 1017.29 1017.17 1017.09 1016.97 1016.85 1016.73 1016.61 1016.45 1016.29 1016.13 1016.01 1015.89 1015.81 1015.65 1015.53 1015.37 1015.25 1015.05 1014.89 1014.73 1014.61 1014.49 1014.37 1014.21 1014.01 1013.85 1013.69 1013.53 1013.37 1013.25 1013.17 1013.09 1012.93 1012.81 1012.65 1012.41 1012.21 1012.05 1011.93 1011.81 1011.69 1011.53 1011.37 1011.21 1011.09 1010.93 1010.93 1010.89 1010.81 1010.77 1010.77
1018.53 1018.49 1018.45 1018.41 1018.33 1018.29 1018.21 1018.17 1018.09 1018.01 1017.93 1017.89 1017.81 1017.69 1017.65 1017.53 1017.41 1017.33 1017.25 1017.09 1016.97 1016.85 1016.73 1016.61 1016.49 1016.29 1016.17 1016.05 1015.89 1015.81 1015.69 1015.53 1015.37 1015.29 1015.17 1015.01 1014.85 1014.65 1014.53 1014.41 1014.25 1014.09 1013.93 1013.77 1013.61 1013.45 1013.29 1013.13 1013.05 1012.93 1012.85 1012.77 1012.61 1012.41 1012.21 1012.01 1011.81 1011.65 1011.57 1011.45 1011.25 1011.09 1010.93 1010.81 1010.73 1010.69 1010.65 1010.61 1010.57
1018.57 1018.53 1018.45 1018.37 1018.33 1018.25 1018.21 1018.17 1018.09 1017.97 1017.93 1017.85 1017.77 1017.65 1017.61 1017.53 1017.41 1017.29 1017.21 1017.09 1016.93 1016.81 1016.65 1016.53 1016.37 1016.21 1016.09 1016.01 1015.89 1015.77 1015.65 1015.53 1015.37 1015.21 1015.09 1014.93 1014.81 1014.65 1014.49 1014.33 1014.17 1014.05 1013.89 1013.73 1013.57 1013.37 1013.25 1013.09 1012.93 1012.81 1012.73 1012.65 1012.53 1012.37 1012.21 1012.01 1011.77 1011.57 1011.41 1011.25 1011.09 1010.93 1010.81 1010.69 1010.57 1010.53 1010.49 1010.41 1010.37
1018.53 1018.49 1018.41 1018.37 1018.33 1018.25 1018.21 1018.13 1018.09 1018.01 1017.93 1017.85 1017.77 1017.69 1017.61 1017.53 1017.41 1017.29 1017.17 1017.09 1016.93 1016.81 1016.65 1016.53 1016.37 1016.21 1016.09 1016.01 1015.89 1015.73 1015.57 1015.49 1015.33 1015.21 1015.05 1014.89 1014.69 1014.57 1014.45 1014.29 1014.09 1013.93 1013.81 1013.65 1013.49 1013.37 1013.21 1013.05 1012.89 1012.77 1012.65 1012.57 1012.49 1012.33 1012.17 1011.97 1011.77 1011.57 1011.37 1011.17 1010.97 1010.81 1010.65 1010.53 1010.45 1010.37 1010.21 1010.13 1010.09
1018.53 1018.53 1018.49 1018.45 1018.37 1018.33 1018.25 1018.21 1018.13 1018.09 1017.97 1017.89 1017.81 1017.73 1017.65 1017.53 1017.41 1017.29 1017.17 1017.09 1016.93 1016.81 1016.69 1016.57 1016.37 1016.25 1016.17 1016.05 1015.89 1015.69 1015.53 1015.41 1015.25 1015.13 1014.97 1014.85 1014.65 1014.53 1014.37 1014.21 1014.09 1013.93 1013.77 1013.61 1013.41 1013.29 1013.13 1012.97 1012.81 1012.69 1012.57 1012.49 1012.37 1012.25 1012.09 1011.93 1011.77 1011.57 1011.37 1011.17 1010.93 1010.77 1010.57 1010.41 1010.33 1010.21 1010.09 1009.97 1009.89
1018.61 1018.57 1018.57 1018.53 1018.49 1018.41 1018.33 1018.25 1018.17 1018.09 1017.97 1017.93 1017.81 1017.73 1017.65 1017.53 1017.41 1017.33 1017.21 1017.09 1016.93 1016.77 1016.61 1016.49 1016.37 1016.25 1016.09 1015.93 1015.81 1015.69 1015.53 1015.37 1015.21 1015.09 1014.93 1014.81 1014.61 1014.41 1014.25 1014.09 1014.01 1013.85 1013.69 1013.53 1013.33 1013.17 1013.01 1012.85 1012.73 1012.61 1012.49 1012.41 1012.33 1012.21 1012.05 1011.89 1011.69 1011.53 1011.33 1011.13 1010.93 1010.73 1010.53 1010.37 1010.21 1010.09 1009.93 1009.85 1009.77
1018.65 1018.65 1018.65 1018.57 1018.53 1018.45 1018.33 1018.21 1018.13 1018.05 1017.93 1017.85 1017.81 1017.69 1017.61 1017.49 1017.37 1017.29 1017.13 1016.97 1016.81 1016.65 1016.53 1016.37 1016.25 1016.09 1015.97 1015.81 1015.65 1015.57 1015.41 1015.25 1015.09 1014.93 1014.81 1014.65 1014.49 1014.29 1014.13 1013.97 1013.85 1013.73 1013.53 1013.37 1013.25 1013.09 1012.93 1012.77 1012.65 1012.53 1012.37 1012.29 1012.21 1012.09 1011.93 1011.77 1011.61 1011.45 1011.25 1011.01 1010.81 1010.65 1010.45 1010.25 1010.05 1009.85 1009.73 1009.65 1009.61
1018.77 1018.73 1018.65 1018.65 1018.53 1018.41 1018.29 1018.21 1018.09 1018.01 1017.93 1017.81 1017.73 1017.65 1017.53 1017.37 1017.25 1017.17 1017.05 1016.89 1016.77 1016.61 1016.45 1016.33 1016.21 1016.05 1015.89 1015.73 1015.53 1015.37 1015.25 1015.13 1014.97 1014.81 1014.69 1014.53 1014.37 1014.21 1014.01 1013.81 1013.65 1013.53 1013.37 1013.25 1013.09 1012.93 1012.81 1012.69 1012.53 1012.41 1012.29 1012.17 1012.05 1011.93 1011.81 1011.65 1011.53 1011.33 1011.09 1010.89 1010.65 1010.53 1010.33 1010.13 1009.93 1009.69 1009.53 1009.41 1009.33
1018.81 1018.77 1018.69 1018.65 1018.53 1018.37 1018.25 1018.13 1018.05 1017.97 1017.89 1017.81 1017.69 1017.61 1017.49 1017.37 1017.21 1017.05 1016.93 1016.77 1016.61 1016.49 1016.37 1016.25 1016.13 1016.01 1015.85 1015.69 1015.53 1015.37 1015.17 1014.97 1014.81 1014.69 1014.53 1014.37 1014.21 1014.09 1013.89 1013.69 1013.53 1013.37 1013.25 1013.13 1012.97 1012.85 1012.69 1012.57 1012.41 1012.25 1012.09 1011.97 1011.85 1011.73 1011.57 1011.41 1011.25 1011.09 1010.89 1010.65 1010.53 1010.37 1010.21 1010.01 1009.81 1009.57 1009.37 1009.25 1009.09
1018.81 1018.77 1018.69 1018.61 1018.53 1018.37 1018.25 1018.13 1018.01 1017.93 1017.81 1017.73 1017.61 1017.49 1017.37 1017.29 1017.13 1017.01 1016.81 1016.65 1016.49 1016.37 1016.21 1016.13 1016.01 1015.89 1015.77 1015.61 1015.49 1015.33 1015.13 1014.93 1014.73 1014.57 1014.41 1014.29 1014.09 1013.89 1013.69 1013.53 1013.37 1013.21 1013.09 1013.01 1012.85 1012.69 1012.53 1012.41 1012.25 1012.13 1011.97 1011.81 1011.65 1011.53 1011.33 1011.13 1010.93 1010.77 1010.57 1010.41 1010.21 1010.09 1009.93 1009.81 1009.61 1009.41 1009.21 1009.01 1008.85
1018.81 1018.73 1018.65 1018.53 1018.45 1018.37 1018.21 1018.09 1017.93 1017.85 1017.77 1017.65 1017.53 1017.37 1017.25 1017.09 1016.97 1016.89 1016.77 1016.53 1016.37 1016.21 1016.09 1015.97 1015.89 1015.77 1015.65 1015.49 1015.37 1015.25 1015.09 1014.93 1014.69 1014.49 1014.29 1014.17 1014.01 1013.81 1013.57 1013.33 1013.13 1012.97 1012.89 1012.81 1012.65 1012.53 1012.37 1012.21 1012.09 1011.93 1011.81 1011.65 1011.49 1011.29 1011.09 1010.89 1010.65 1010.41 1010.21 1010.09 1009.89 1009.73 1009.65 1009.53 1009.33 1009.13 1008.93 1008.77 1008.61
1018.73 1018.65 1018.61 1018.49 1018.37 1018.25 1018.13 1018.01 1017.89 1017.81 1017.65 1017.57 1017.45 1017.33 1017.17 1017.01 1016.89 1016.77 1016.65 1016.49 1016.33 1016.17 1016.01 1015.89 1015.77 1015.65 1015.53 1015.41 1015.25 1015.09 1014.97 1014.85 1014.69 1014.49 1014.21 1014.09 1013.97 1013.81 1013.53 1013.25 1013.01 1012.81 1012.69 1012.61 1012.45 1012.33 1012.17 1012.01 1011.85 1011.73 1011.61 1011.45 1011.25 1011.05 1010.81 1010.65 1010.37 1010.13 1009.93 1009.69 1009.53 1009.37 1009.25 1009.17 1009.05 1008.85 1008.65 1008.45 1008.29
1018.65 1018.61 1018.53 1018.45 1018.33 1018.17 1018.09 1017.97 1017.89 1017.77 1017.65 1017.53 1017.37 1017.25 1017.09 1016.97 1016.85 1016.69 1016.57 1016.45 1016.37 1016.21 1016.05 1015.85 1015.73 1015.65 1015.53 1015.37 1015.17 1014.97 1014.81 1014.73 1014.65 1014.49 1014.25 1014.09 1013.93 1013.77 1013.53 1013.25 1012.93 1012.69 1012.57 1012.45 1012.29 1012.09 1011.93 1011.81 1011.65 1011.53 1011.45 1011.29 1011.09 1010.89 1010.65 1010.41 1010.13 1009.89 1009.65 1009.41 1009.21 1009.05 1008.93 1008.81 1008.73 1008.53 1008.33 1008.13 1008.01
1018.61 1018.53 1018.49 1018.37 1018.29 1018.17 1018.05 1017.97 1017.89 1017.81 1017.65 1017.53 1017.33 1017.21 1017.09 1016.93 1016.81 1016.69 1016.57 1016.49 1016.41 1016.33 1016.13 1015.93 1015.77 1015.61 1015.45 1015.29 1015.09 1014.89 1014.69 1014.57 1014.53 1014.41 1014.25 1014.09 1013.89 1013.69 1013.53 1013.21 1012.89 1012.61 1012.41 1012.29 1012.09 1011.93 1011.81 1011.65 1011.53 1011.37 1011.29 1011.17 1010.97 1010.77 1010.53 1010.25 1009.93 1009.65 1009.37 1009.17 1008.93 1008.73 1008.57 1008.49 1008.37 1008.21 1008.01 1007.85 1007.73
1018.61 1018.53 1018.41 1018.37 1018.29 1018.17 1018.09 1017.97 1017.85 1017.77 1017.65 1017.53 1017.37 1017.25 1017.09 1016.97 1016.81 1016.65 1016.53 1016.45 1016.37 1016.33 1016.17 1015.97 1015.81 1015.61 1015.41 1015.25 1015.09 1014.85 1014.61 1014.41 1014.37 1014.25 1014.13 1013.97 1013.77 1013.57 1013.37 1013.13 1012.81 1012.53 1012.29 1012.13 1011.97 1011.81 1011.65 1011.53 1011.37 1011.25 1011.09 1010.97 1010.81 1010.61 1010.37 1010.09 1009.77 1009.41 1009.13 1008.93 1008.69 1008.49 1008.25 1008.09 1008.05 1007.93 1007.73 1007.53 1007.45
1018.53 1018.45 1018.37 1018.33 1018.25 1018.17 1018.09 1018.01 1017.85 1017.73 1017.65 1017.53 1017.45 1017.33 1017.17 1016.97 1016.85 1016.69 1016.57 1016.49 1016.37 1016.29 1016.17 1015.97 1015.77 1015.57 1015.41 1015.25 1015.09 1014.89 1014.65 1014.37 1014.21 1014.09 1014.01 1013.85 1013.65 1013.45 1013.25 1013.09 1012.77 1012.45 1012.21 1012.05 1011.89 1011.69 1011.53 1011.37 1011.17 1011.05 1010.93 1010.77 1010.57 1010.37 1010.17 1009.93 1009.57 1009.21 1008.89 1008.65 1008.49 1008.25 1008.05 1007.81 1007.65 1007.57 1007.45 1007.25 1007.13
Wind_Speed
3 3 3 3 2 2 2 2 2 2 2 2 2 2 2 2 2 2 1 1 1 2 1 1 1 1 1 2 3 3 4 4 5 5 6 7 7 7 7 7 7 7 6 6 6 5 5 5 4 4 3 3 4 5 5 4 5 5 5 5 5 5 5 5 5 5 5 5 4
3 3 2 2 2 2 2 2 2 2 2 2 2 2 2 2 2 2 1 2 2 2 1 1 1 1 2 2 3 4 4 4 5 5 6 6 7 7 7 7 7 7 7 6 5 5 4 4 4 4 3 4 4 4 5 4 4 5 5 6 5 4 4 5 5 5 5 5 4
2 2 2 2 2 2 1 1 1 1 1 1 1 1 1 1 1 2 2 2 2 2 1 1 2 2 3 4 4 4 5 5 6 6 6 6 6 6 6 6 5 5 5 5 4 4 4 4 4 4 4 4 4 5 4 4 4 4 5 5 4 3 3 4 4 4 4 4 4
6 5 5 5 5 4 4 3 2 2 1 1 1 1 1 1 1 1 1 1 1 1 2 2 2 3 3 4 4 4 5 5 5 5 5 4 4 4 4 3 3 3 4 4 4 4 5 5 4 4 4 5 5 5 4 4 4 4 4 4 3 3 3 3 3 3 3 4 4
8 7 7 6 7 6 5 5 4 4 3 2 2 2 2 2 1 1 1 1 1 1 2 2 2 2 2 3 3 3 3 3 3 3 3 3 3 3 2 2 3 3 3 3 4 4 5 5 4 4 4 5 4 4 4 4 4 4 4 3 3 3 3 4 3 3 3 4 4
8 8 8 7 7 7 6 5 5 4 4 4 5 4 4 3 3 3 2 2 2 2 1 1 1 1 1 1 2 2 3 3 3 3 3 4 3 3 3 3 3 3 3 3 4 4 5 5 4 4 4 4 4 4 4 5 5 5 4 4 4 4 4 4 4 3 3 4 4
8 8 8 8 8 7 6 6 6 5 5 5 7 7 7 6 6 6 5 5 4 4 4 4 4 5 5 6 6 6 6 5 5 5 5 5 4 4 3 3 3 3 3 3 4 4 4 4 4 3 3 3 4 4 5 5 5 5 5 5 4 4 4 5 4 4 4 6 6
7 7 7 7 7 7 7 7 7 6 6 6 7 8 8 8 8 8 8 7 7 6 6 6 7 8 7 7 7 7 7 6 6 6 5 5 5 5 4 4 4 3 4 3 4 4 4 3 3 3 3 3 3 4 5 5 6 6 6 7 5 4 4 5 4 5 5 7 7
6 6 7 7 7 8 8 7 7 7 8 8 8 8 8 9 9 9 8 7 6 6 6 6 7 8 8 8 7 7 7 7 7 7 7 6 7 6 6 5 5 5 4 4 4 4 4 3 3 3 3 3 3 4 5 6 7 7 7 7 6 5 5 5 5 6 6 7 8
7 7 8 8 8 8 8 8 8 8 8 8 9 9 9 9 9 8 7 5 6 6 6 6 7 8 8 8 8 7 7 7 7 8 8 8 8 8 7 7 6 6 6 5 4 4 4 4 4 4 4 4 5 5 6 6 7 7 7 6 5 5 6 5 6 6 7 7 8
9 9 9 8 8 8 8 8 8 8 8 8 8 9 8 9 8 7 6 5 6 7 7 7 7 7 7 7 7 7 7 7 7 8 8 8 8 8 8 7 7 7 6 6 5 4 4 4 5 6 6 5 5 6 6 6 7 7 8 6 6 6 6 6 6 6 7 7 8
9 9 9 8 8 8 8 7 7 7 7 7 7 7 7 7 6 6 6 7 7 7 7 6 7 7 7 7 7 7 7 7 7 7 7 8 8 8 8 8 7 7 7 7 5 4 4 5 6 7 7 7 6 5 6 6 7 7 8 7 7 6 6 6 6 6 6 6 7
9 8 8 8 7 7 7 6 6 6 6 6 6 6 6 6 6 6 6 7 7 6 6 6 6 6 6 6 6 7 7 7 7 7 7 7 8 8 8 8 7 7 7 7 5 4 4 5 7 7 8 8 7 6 6 7 7 8 8 8 7 7 7 7 6 6 6 6 7
8 8 8 8 7 7 7 6 6 6 6 7 6 6 6 6 6 6 6 6 6 6 5 6 5 5 5 6 6 7 7 7 7 7 7 8 8 8 8 8 8 8 7 7 5 5 5 6 7 8 8 9 8 7 7 7 7 8 8 8 8 8 8 8 7 7 6 7 7
9 9 9 9 8 8 7 7 6 6 7 7 7 7 6 6 6 6 6 7 7 6 6 6 6 6 6 6 6 7 7 7 7 7 7 8 8 8 8 8 8 8 8 7 6 6 6 7 7 8 8 9 9 9 8 7 8 8 8 8 9 9 9 8 8 7 7 8 8
10 10 10 10 10 9 8 7 6 6 7 7 7 7 7 6 6 7 7 8 7 7 7 7 7 7 7 7 7 7 7 7 7 7 7 7 8 8 8 8 8 9 9 9 8 8 7 7 7 8 8 9 9 9 8 8 8 8 9 9 9 9 9 9 8 8 8 8 8
11 11 10 11 11 10 9 8 7 7 7 8 8 8 7 7 7 7 8 8 8 8 9 9 8 8 8 8 8 8 8 8 7 7 7 7 8 8 8 8 8 9 9 9 9 9 9 8 8 8 8 9 9 9 9 8 8 8 9 9 9 10 10 9 9 8 8 9 9
11 11 11 11 11 11 10 9 9 8 8 8 8 8 8 8 8 8 8 8 8 9 10 10 9 8 9 9 8 8 7 8 8 8 8 7 8 8 8 8 8 9 9 9 9 10 10 10 9 9 8 8 9 9 9 9 9 9 9 9 10 10 10 9 9 9 8 9 9
11 11 11 11 10 10 10 10 10 9 9 9 8 9 9 9 9 9 9 9 9 9 10 10 10 9 9 9 9 9 8 7 8 9 8 8 8 8 8 8 9 9 9 9 9 10 10 10 10 9 9 9 9 9 9 9 9 9 9 10 10 10 10 10 9 9 9 9 9
10 10 10 10 9 9 10 10 9 9 9 9 9 10 10 10 10 10 10 10 10 10 9 10 10 10 9 9 10 9 8 7 8 8 9 8 8 8 8 8 9 9 9 9 9 10 10 10 10 10 10 9 10 10 10 10 10 10 10 9 9 10 10 10 10 10 10 9 9
9 9 9 9 8 9 9 9 9 8 9 9 9 10 10 10 10 9 9 9 9 9 9 9 9 9 9 9 9 9 9 7 7 8 8 8 8 8 8 8 8 9 9 9 9 10 10 10 10 10 10 10 10 10 10 10 10 10 10 9 9 10 10 10 11 11 10 10 10
7 7 7 8 8 8 8 8 8 8 8 8 9 8 8 8 8 8 8 8 8 8 7 8 8 8 8 8 9 9 8 7 7 7 7 7 8 8 7 7 8 8 9 9 9 9 10 10 10 10 10 10 10 11 11 11 10 10 10 10 10 10 11 11 11 11 11 10 10
6 6 6 7 7 8 8 8 7 7 7 8 8 7 7 7 7 7 7 6 6 6 6 6 6 7 7 7 8 8 8 8 8 8 7 7 7 7 7 7 7 7 8 8 8 8 8 9 9 9 9 9 10 11 11 11 11 10 10 10 11 11 11 11 11 10 10 11 10
6 6 5 6 6 7 7 7 7 7 7 7 7 7 7 7 7 6 6 6 6 6 6 6 6 7 7 7 7 7 7 7 8 8 8 8 7 7 7 7 7 7 7 6 7 7 8 8 8 8 8 9 10 10 10 11 11 11 11 11 11 11 11 11 11 11 11 11 10
6 5 5 5 5 5 6 6 6 6 6 6 6 6 6 6 6 7 7 7 7 7 7 7 7 6 6 6 6 6 7 7 8 8 9 9 8 8 7 7 6 6 6 6 9 11 11 11 10 9 9 10 10 10 10 10 11 11 11 11 12 11 11 11 11 11 11 12 11
5 5 5 5 5 5 6 6 6 6 6 6 6 6 6 6 7 7 7 8 8 8 8 7 7 7 7 6 7 7 7 7 7 8 9 9 9 9 8 7 7 6 7 8 11 13 15 16 15 13 11 10 10 11 10 10 10 11 11 12 12 12 11 12 11 11 11 11 11
4 5 5 5 5 6 6 6 6 6 6 7 7 8 8 8 8 8 9 9 9 9 8 8 7 8 8 7 8 9 9 9 9 9 9 9 10 10 9 8 7 7 8 11 14 16 17 18 18 17 14 11 10 10 10 11 11 11 11 11 11 11 12 12 12 12 11 10 10
5 5 6 6 7 7 7 7 7 8 8 8 9 9 9 9 9 9 10 10 10 9 9 8 7 7 7 7 8 10 10 10 10 10 9 10 10 10 10 9 8 9 10 14 16 18 18 18 18 18 17 14 11 10 11 11 12 12 11 11 11 11 12 12 12 12 11 11 10
6 6 7 8 8 8 8 8 8 8 9 9 9 9 9 9 9 9 10 10 10 9 8 7 7 7 7 8 9 9 10 10 10 9 10 10 10 10 10 10 9 10 13 16 18 18 19 19 19 19 18 17 12 10 9 10 11 11 11 11 11 11 11 11 11 11 11 11 10
7 7 8 8 8 8 8 8 8 8 8 7 8 8 9 9 9 9 9 9 9 8 7 7 7 7 8 8 8 9 9 9 9 9 9 10 10 10 10 10 9 10 13 16 18 19 19 19 19 19 19 19 15 11 9 10 10 10 10 10 11 12 12 11 12 12 12 11 11
7 7 7 7 7 7 7 7 7 7 7 7 7 8 8 8 8 8 8 7 7 7 7 7 7 8 8 8 7 8 8 9 9 9 9 9 10 11 10 10 10 11 13 16 18 19 20 20 20 20 20 20 16 12 10 10 11 11 11 11 12 13 13 13 12 12 12 12 11
6 6 7 7 7 7 7 7 7 7 7 7 7 7 7 7 7 7 6 6 7 7 7 7 8 8 8 8 7 8 8 9 9 9 9 9 10 10 10 11 10 11 13 17 19 21 21 22 22 22 22 22 18 14 12 11 11 12 13 14 15 16 15 14 13 13 14 14 13
6 6 6 6 7 7 7 7 7 7 7 7 7 7 7 7 7 6 6 6 6 6 7 7 8 8 9 9 9 9 10 10 10 10 10 11 11 12 12 11 10 12 15 19 21 22 22 23 23 23 23 23 18 14 12 11 11 11 12 13 15 15 16 16 15 15 15 15 15
5 5 6 6 6 7 7 7 7 7 7 7 7 7 7 7 7 7 7 7 6 6 6 6 7 7 7 8 8 10 11 11 11 11 11 12 13 13 13 12 11 13 17 21 23 23 23 23 23 24 24 23 17 13 11 12 12 12 13 14 15 15 16 17 17 17 16 16 15
5 5 6 6 6 7 7 7 7 7 7 7 7 7 7 6 7 7 7 7 7 6 6 6 6 7 7 7 7 9 11 12 12 13 13 13 14 15 15 15 13 15 19 22 23 24 24 24 24 24 24 21 15 12 11 12 12 13 14 15 15 16 17 17 17 17 16 16 16
5 6 6 7 7 7 7 7 7 7 7 7 8 8 7 7 7 6 7 8 7 7 7 8 7 7 7 8 8 9 10 12 13 14 14 14 15 16 16 17 16 18 20 23 24 24 24 25 25 25 23 18 13 11 11 11 11 12 14 15 15 15 16 16 16 16 16 15 16
6 6 6 7 7 7 7 7 7 7 8 8 8 8 8 8 8 7 7 7 7 8 9 9 9 9 9 9 10 10 10 12 13 15 15 15 15 16 17 18 18 19 20 22 24 25 25 25 25 24 22 16 12 11 11 11 11 11 13 14 14 15 15 14 14 15 15 15 15
6 6 6 7 7 7 7 7 7 8 8 8 7 7 7 7 7 7 7 7 7 8 10 10 10 10 11 11 12 12 13 12 13 14 15 15 15 16 17 18 18 18 19 21 24 25 25 25 25 24 21 16 13 12 11 11 11 12 12 13 13 13 14 12 12 12 14 15 16
6 6 6 6 7 7 7 7 7 8 8 8 8 8 8 8 7 7 7 7 7 8 9 10 11 11 12 13 13 14 14 13 13 14 14 15 15 16 17 18 18 18 19 21 24 26 26 26 26 25 23 18 14 12 11 11 12 13 13 12 12 13 13 12 11 11 12 14 16
5 5 5 6 6 7 7 8 8 7 7 8 8 9 9 8 7 8 8 8 7 8 9 10 11 12 12 13 13 14 15 15 14 14 14 15 16 17 18 18 18 18 19 22 24 26 27 27 26 26 24 18 14 12 11 11 12 13 13 12 12 12 12 11 11 10 11 13 15
4 5 5 6 6 7 7 8 8 8 7 7 8 8 8 8 8 8 8 8 8 8 9 10 12 13 13 13 13 14 15 16 15 15 15 16 17 18 18 18 18 19 19 20 23 25 27 27 27 27 25 19 15 12 10 10 12 13 14 13 12 11 11 11 11 10 11 11 12
Wind_Direction
119 126 131 136 140 142 145 146 144 148 155 164 176 184 186 184 189 194 196 190 197 205 211 210 202 199 194 190 193 201 209 216 219 222 224 227 230 231 230 229 227 227 229 231 232 232 232 233 237 242 246 246 247 249 249 247 246 247 248 248 249 251 253 252 250 243 234 225 221
121 125 128 131 132 133 134 136 140 151 165 179 186 190 191 189 195 203 210 212 214 215 215 217 208 202 200 203 202 205 209 215 216 218 219 221 223 223 221 220 219 222 226 233 236 238 240 239 242 247 251 250 250 251 251 247 245 247 249 249 248 249 250 250 248 243 237 230 226
76 78 76 72 69 72 81 95 108 131 167 206 222 223 217 212 213 214 218 221 218 213 210 217 212 208 207 210 210 209 209 210 210 211 212 215 217 218 219 221 222 226 232 240 246 251 254 252 250 250 251 251 251 253 254 251 244 245 248 249 248 246 245 247 246 242 238 236 229
47 47 47 45 37 34 32 33 33 26 9 346 336 331 325 308 284 259 243 236 227 217 216 218 217 214 210 209 211 211 210 208 208 210 215 221 224 227 231 236 244 250 254 257 260 263 264 261 258 255 252 251 253 255 256 253 244 243 245 247 245 242 241 243 240 237 235 235 230
48 48 48 47 42 38 34 31 29 25 21 22 27 22 14 5 3 3 4 353 279 245 234 227 224 220 216 211 216 222 226 226 227 234 246 257 259 259 258 260 261 261 262 263 264 265 265 262 262 259 256 253 252 252 250 247 244 244 245 246 241 238 237 238 236 233 230 231 229
45 44 42 42 40 38 36 34 33 32 32 35 36 32 25 17 16 15 11 359 333 312 300 291 296 311 324 335 329 322 316 311 307 302 297 291 284 278 269 260 253 251 253 256 259 261 262 261 263 262 261 259 257 252 246 241 241 243 245 246 241 237 235 235 233 230 226 226 225
45 42 39 36 34 32 30 26 28 29 32 36 35 31 26 21 19 17 13 9 3 359 357 359 1 1 360 358 355 350 345 339 332 324 316 306 298 290 280 269 262 258 257 256 258 259 260 260 264 266 265 263 262 257 250 242 241 241 243 244 240 236 234 234 231 226 223 221 219
47 43 40 36 34 32 30 28 30 32 34 35 33 30 27 25 22 20 17 14 9 5 3 4 1 360 359 358 354 350 346 342 338 333 327 321 313 306 297 288 282 276 269 265 264 263 262 260 262 265 267 268 268 265 259 251 247 245 245 244 242 237 231 232 228 224 221 218 216
46 42 38 36 34 33 33 33 36 38 38 35 31 28 27 26 24 22 19 15 9 6 6 5 0 359 357 356 352 348 345 343 339 337 334 332 328 322 315 308 300 292 285 279 275 271 269 267 266 266 267 269 272 272 269 263 257 254 251 249 246 240 233 230 226 223 221 218 217
46 42 39 37 34 33 35 36 37 38 37 34 29 26 24 23 22 20 17 10 8 8 8 4 1 359 358 356 352 349 345 343 340 338 336 335 332 328 323 317 309 301 295 289 284 278 274 273 272 271 269 269 271 274 275 272 267 264 260 257 251 244 237 231 226 224 222 221 220
45 42 40 38 34 34 36 36 35 35 33 31 26 23 21 20 17 14 11 9 9 7 3 359 360 359 357 354 351 348 346 345 343 340 338 334 331 328 324 318 311 303 297 292 287 281 277 273 272 271 270 268 269 272 273 272 270 268 267 266 259 252 244 236 230 227 226 225 224
44 42 40 38 35 36 37 37 35 33 31 29 25 22 19 15 11 9 8 10 8 2 357 354 357 356 354 350 348 346 345 345 343 341 338 334 331 327 323 319 313 306 299 292 288 282 275 270 269 269 269 268 267 267 267 266 265 265 265 265 262 257 251 244 237 234 233 231 230
44 42 39 36 35 36 36 35 33 31 29 25 22 18 15 10 7 8 9 8 4 358 352 351 353 352 350 345 343 343 342 342 342 341 338 334 332 329 326 322 317 311 304 297 292 284 275 268 267 267 268 268 267 265 262 261 260 260 260 260 258 256 253 248 242 239 239 238 237
43 41 38 34 33 32 32 30 27 25 22 20 17 14 10 6 5 6 7 5 360 354 350 349 349 348 345 342 340 339 338 338 338 337 335 333 332 331 329 325 321 316 311 305 299 289 278 270 266 266 266 268 267 265 261 257 256 256 256 256 255 254 252 249 244 240 238 238 239
39 36 33 31 29 28 27 24 22 19 17 15 11 9 8 6 4 5 5 3 358 354 353 352 349 346 344 343 340 338 337 336 335 335 333 331 330 329 328 325 322 319 315 311 306 297 285 274 269 266 266 266 266 264 261 256 254 254 255 255 255 255 253 250 246 241 237 236 238
33 30 28 27 25 24 23 20 18 16 13 11 8 8 8 6 4 5 5 3 359 357 356 355 351 348 346 346 345 343 340 338 336 334 331 328 327 326 324 322 320 317 315 312 308 303 295 284 277 272 268 267 266 264 262 257 254 253 253 253 254 255 254 253 249 245 242 239 239
28 26 24 23 22 20 19 16 15 13 11 9 8 8 8 5 4 5 5 4 1 358 355 353 352 350 349 347 348 347 344 340 337 334 330 326 323 322 320 318 315 313 311 309 307 303 299 294 288 281 275 271 269 266 263 259 255 253 252 252 253 253 254 253 252 250 248 245 244
24 22 20 19 18 16 14 13 11 10 8 7 7 7 6 6 4 3 2 2 1 358 354 351 350 350 349 346 345 345 343 339 334 330 326 322 320 318 316 313 312 310 309 307 304 301 299 296 293 289 284 279 274 270 266 261 257 255 253 253 254 254 255 256 255 254 253 251 249
20 18 16 15 14 12 11 10 9 7 6 6 5 5 4 4 2 0 359 358 358 356 353 349 348 347 345 343 341 339 337 333 328 323 320 317 316 315 313 312 311 310 309 307 305 302 300 298 295 293 290 286 281 276 271 265 261 258 255 254 254 255 256 257 258 258 257 256 254
18 15 13 11 10 9 8 8 6 5 4 4 3 2 1 360 359 358 355 352 351 350 349 346 343 341 339 337 335 332 329 326 322 318 315 313 312 311 310 310 310 310 310 308 307 304 302 300 298 296 293 290 287 283 278 273 267 262 258 256 254 254 254 256 257 258 258 257 256
15 12 10 9 8 7 7 6 5 4 3 3 1 359 357 356 354 352 348 344 344 344 343 340 336 333 331 329 326 323 320 318 315 312 310 308 307 305 305 306 308 309 309 309 307 306 304 302 300 298 296 294 292 289 286 281 274 268 262 258 255 252 251 252 254 255 255 254 253
11 9 7 7 7 6 5 4 4 3 2 360 357 354 352 350 346 343 339 337 337 336 333 329 326 322 319 316 314 312 311 311 309 307 305 303 302 301 301 302 303 304 305 305 305 304 303 302 301 299 298 296 293 291 289 286 282 276 269 264 259 255 252 251 250 250 249 249 248
6 5 5 6 6 5 5 3 2 0 358 355 351 348 345 342 337 334 332 331 330 327 323 319 315 310 306 303 302 303 304 306 306 304 302 300 299 298 298 298 298 297 297 297 298 300 301 302 302 301 299 297 294 291 289 287 285 281 276 270 266 262 258 254 249 246 245 244 244
3 3 4 6 5 4 2 1 359 356 353 348 344 341 339 335 333 331 329 327 323 319 316 312 308 304 300 297 297 299 301 304 305 305 304 303 300 298 297 297 295 293 291 290 292 294 297 301 303 304 303 301 298 294 291 288 285 281 277 273 270 267 264 259 252 247 243 242 241
2 3 5 5 3 1 359 357 354 350 346 341 338 337 336 334 333 332 330 327 324 320 316 312 308 305 303 303 303 303 304 305 306 307 308 308 306 304 302 301 298 296 293 292 293 295 298 302 305 307 308 307 305 301 297 292 287 283 280 276 273 270 268 264 258 251 246 242 240
3 5 5 3 2 360 357 354 350 346 342 340 340 339 338 336 335 333 332 330 327 325 322 319 317 316 317 315 316 315 315 313 312 311 311 311 311 311 309 307 305 302 300 299 300 301 302 304 306 307 309 309 308 306 302 298 292 288 284 280 276 272 270 267 263 258 252 246 242
6 6 4 1 2 359 355 351 348 347 345 344 343 342 340 338 337 335 334 332 330 328 327 326 325 325 325 323 323 323 322 320 319 316 315 314 314 313 312 310 308 307 305 304 304 304 305 306 307 307 308 307 306 305 303 300 297 292 288 283 278 273 270 268 266 263 258 253 246
7 5 3 2 1 358 354 352 351 349 348 346 344 341 339 337 336 334 332 330 329 329 329 329 328 327 327 326 324 323 322 321 320 318 317 315 314 312 311 310 309 308 307 307 307 307 306 306 307 307 307 307 305 303 301 299 297 294 290 285 280 275 271 268 266 262 258 253 247
7 5 3 2 359 355 353 352 350 348 345 341 339 337 335 334 333 330 328 327 327 327 327 325 325 324 323 321 318 317 317 316 316 315 314 313 311 310 309 308 307 307 308 309 308 308 308 307 307 307 307 307 305 303 301 298 296 294 292 288 285 281 276 271 267 262 257 250 244
6 4 1 358 354 351 348 346 343 340 337 335 333 331 330 328 326 325 323 322 321 319 316 315 315 315 314 312 311 312 311 310 310 310 309 308 307 306 305 305 305 305 306 308 307 307 307 307 307 306 306 307 305 302 299 297 295 294 292 289 287 284 280 276 270 265 260 255 249
4 0 356 351 347 343 339 335 332 330 329 328 326 324 322 321 319 317 316 314 311 309 308 308 308 307 306 305 306 306 306 306 307 306 306 305 304 304 303 303 302 302 302 305 305 305 305 305 305 305 305 306 305 302 298 296 294 292 290 288 287 285 283 280 274 268 263 259 255
358 353 348 343 338 333 328 324 323 323 322 320 318 316 314 312 310 308 306 305 306 307 309 311 311 310 310 310 309 308 308 308 307 307 306 305 304 304 303 302 300 300 301 304 305 305 305 304 304 303 303 303 301 298 295 293 292 290 288 286 285 284 283 280 277 272 266 261 256
349 343 338 333 328 323 320 318 317 317 316 315 313 311 310 309 309 309 309 308 309 311 312 314 315 315 315 316 315 314 313 311 310 310 309 309 307 306 305 304 302 303 304 306 306 306 305 304 303 302 301 301 298 295 292 289 287 286 285 284 284 283 282 281 278 275 270 264 259
336 330 326 321 318 316 314 314 314 314 314 312 311 310 311 312 315 316 316 316 315 314 313 313 314 314 313 314 315 315 315 314 314 314 313 312 311 309 308 307 304 305 307 307 307 306 305 304 303 302 301 300 297 292 287 283 282 280 280 280 280 280 280 280 278 276 272 268 262
322 319 315 313 311 310 310 311 312 313 314 314 314 314 315 317 318 318 318 317 317 316 315 314 312 312 312 313 313 314 315 315 315 315 314 314 313 312 310 308 305 306 307 307 307 306 305 304 303 302 301 299 296 290 284 281 279 277 276 276 276 276 276 277 276 275 273 269 265
311 310 309 309 309 309 310 311 313 315 317 318 319 320 322 322 321 319 318 319 319 319 318 317 318 317 317 317 316 316 315 315 315 314 314 315 314 312 310 308 306 306 307 307 306 305 305 304 303 302 301 299 294 289 284 281 279 276 275 274 274 274 274 275 274 273 271 269 264
303 304 306 308 309 310 312 314 317 320 322 322 323 324 325 324 323 322 322 324 324 323 322 321 322 321 320 318 317 315 313 313 313 313 313 313 313 311 309 307 306 305 306 306 305 304 304 303 302 301 301 298 294 290 287 283 280 277 276 275 274 274 273 274 274 273 271 269 265
299 302 306 309 311 313 316 320 323 324 324 324 324 325 325 325 324 324 326 328 326 324 323 322 321 320 318 317 314 312 311 311 311 311 311 310 309 308 307 305 304 304 304 304 304 303 303 302 302 301 301 297 294 291 288 285 282 280 278 277 276 274 273 273 273 272 271 269 266
299 303 308 312 314 317 320 324 325 325 325 325 326 326 327 327 325 324 325 326 324 322 320 319 317 316 315 316 314 312 311 310 309 309 308 306 306 305 304 303 302 302 302 303 303 303 302 302 301 301 300 297 293 290 287 285 282 281 279 277 277 275 273 271 270 270 270 270 268
301 307 313 317 319 322 326 328 327 326 326 327 327 326 326 325 322 322 323 324 321 319 317 314 313 313 313 314 313 311 310 309 308 307 306 304 303 303 303 302 301 301 301 301 302 302 301 301 300 300 299 296 292 288 285 283 281 280 279 277 277 276 275 272 270 269 270 270 269
308 316 323 325 327 329 330 330 328 328 327 327 325 323 321 321 321 322 322 321 319 317 314 312 311 311 311 312 311 309 308 307 306 305 305 304 303 303 302 301 300 299 299 299 300 299 299 299 298 298 297 294 291 287 283 281 279 278 278 277 276 276 276 275 273 270 268 269 269